{"data":{"norad_id":66517,"epoch":"2026-09-20T10:38:18.109824Z","epoch_age_seconds":94108,"freshness":"FRESH","line1":"1 66517U 25265B   26263.44326516  .00006091  00000+0  23066-3 0  9990","line2":"2 66517  43.0038 258.4923 0001714 275.2498  84.8158 15.27582412 46896","mean_motion":15.27582412,"eccentricity":0.0001714,"inclination_deg":43.0038,"raan_deg":258.4923,"arg_perigee_deg":275.2498,"mean_anomaly_deg":84.8158,"bstar":0.00023066,"rev_number":4689,"period_min":94.266599869703,"perigee_km":481.8658675945,"apogee_km":484.21787971239,"semimajor_km":6861.1788736534,"source":"CELESTRAK","updated_at":"2026-09-21T09:00:35.925397Z"}}